Effingham, IL

3:56 AM CDT on July 25, 2017 (GMT -0500)
Effingham

Weather History for K1H2 - January, 2014

Change the Weather History Date:

Sunday, January 12, 2014

  Actual Average (KMTO) Record (KMTO)
Temperature  
Mean Temperature 36 °F -  
Max Temperature 48 °F 31 °F 68 °F (1960)
Min Temperature 25 °F 15 °F -9 °F (1974)
Degree Days  
Heating Degree Days 28    
Moisture  
Dew Point 29 °F    
Average Humidity 70    
Maximum Humidity 92    
Minimum Humidity 53    
Precipitation  
Precipitation 0.00 in - - ()
Sea Level Pressure  
Sea Level Pressure 29.88 in    
Wind  
Wind Speed 8 mph (South)    
Max Wind Speed 18 mph    
Max Gust Speed 30 mph    
Visibility 9 miles    
Events      
Averages and records for this station are not official NWS values.
T = Trace of Precipitation, MM = Missing Value Source: NWS Daily Summary

Daily Weather History Graph

Daily Weather History Graph

Search for Another Location

Airport or City:

Trip Planner

Search our weather history database for the weather conditions in past years. The results will help you decide how hot, cold, wet, or windy it might be!

Date:

Astronomy

Jan. 12, 2014 Rise Set
Actual Time 7:12 AM CST 4:52 PM CST
Civil Twilight 6:43 AM CST 5:22 PM CST
Nautical Twilight 6:10 AM CST 5:55 PM CST
Astronomical Twilight 5:37 AM CST 6:27 PM CST
Moon 2:20 PM CST (1/12) 4:11 AM CST (1/12)
Length of Visible Light 10h 39m
Length of Day
9h 40m
Waxing Gibbous, 90% of the Moon is Illuminated
Jan 12
Waxing Gibbous
Jan 15
Full
Jan 23
Last Quarter
Jan 30
New
Feb 6
First Quarter

Hourly Weather History & Observations

Time (CST) Temp. Windchill Dew Point Humidity Pressure Visibility Wind Dir Wind Speed Gust Speed Precip Events Conditions
12:15 AM 32.4 °F 25.3 °F 28.8 °F 87% 29.90 in 10.0 mi West 8.1 mph - N/A   Unknown
12:35 AM 33.1 °F 28.7 °F 28.6 °F 84% 29.89 in 10.0 mi West 4.6 mph - N/A   Unknown
12:55 AM 32.2 °F 27.7 °F 27.7 °F 83% 29.90 in 10.0 mi West 4.6 mph - N/A   Unknown
1:15 AM 32.0 °F 26.4 °F 26.8 °F 81% 29.91 in 10.0 mi WSW 5.8 mph - N/A   Unknown
1:35 AM 30.9 °F 26.2 °F 26.8 °F 85% 29.92 in 10.0 mi West 4.6 mph - N/A   Unknown
1:55 AM 30.9 °F 26.2 °F 27.5 °F 87% 29.92 in 10.0 mi West 4.6 mph - N/A   Unknown
2:15 AM 30.9 °F 23.5 °F 27.0 °F 85% 29.93 in 10.0 mi West 8.1 mph - N/A   Unknown
2:35 AM 31.8 °F 23.9 °F 27.9 °F 85% 29.94 in 10.0 mi West 9.2 mph - N/A   Unknown
2:55 AM 30.6 °F 25.8 °F 26.6 °F 85% 29.94 in 10.0 mi West 4.6 mph - N/A   Unknown
3:15 AM 30.2 °F 24.3 °F 26.6 °F 86% 29.94 in 10.0 mi West 5.8 mph - N/A   Unknown
3:35 AM 30.2 °F - 26.8 °F 87% 29.93 in 10.0 mi Calm Calm - N/A   Unknown
3:55 AM 29.7 °F 26.1 °F 26.6 °F 88% 29.93 in 10.0 mi West 3.5 mph - N/A   Unknown
4:15 AM 28.8 °F - 26.1 °F 90% 29.94 in 10.0 mi Calm Calm - N/A   Unknown
4:35 AM 28.4 °F - 26.1 °F 91% 29.95 in 7.0 mi Calm Calm - N/A   Unknown
4:55 AM 25.7 °F - 23.4 °F 91% 29.95 in 4.0 mi Calm Calm - N/A   Mist
5:15 AM 26.4 °F - 24.4 °F 92% 29.96 in 3.0 mi Calm Calm - N/A   Mist
5:35 AM 26.6 °F - 24.6 °F 92% 29.97 in 3.0 mi Calm Calm - N/A   Mist
5:55 AM 26.1 °F - 23.9 °F 92% 29.97 in 4.0 mi Calm Calm - N/A   Mist
6:15 AM 27.3 °F - 25.3 °F 92% 29.98 in 3.0 mi Calm Calm - N/A   Mist
6:35 AM 26.6 °F - 24.4 °F 92% 29.98 in 4.0 mi Calm Calm - N/A   Mist
6:55 AM 26.2 °F 22.1 °F 23.9 °F 91% 29.98 in 4.0 mi SE 3.5 mph - N/A   Mist
7:15 AM 27.0 °F 21.6 °F 24.8 °F 92% 29.99 in 3.0 mi SE 4.6 mph - N/A   Mist
7:35 AM 27.3 °F 22.0 °F 25.2 °F 92% 29.98 in 4.0 mi SE 4.6 mph - N/A   Mist
7:55 AM 29.3 °F 24.3 °F 27.1 °F 92% 29.99 in 5.0 mi SE 4.6 mph - N/A   Mist
8:15 AM 30.4 °F 23.6 °F 28.2 °F 92% 29.98 in 5.0 mi SE 6.9 mph - N/A   Mist
8:35 AM 32.0 °F 26.4 °F 29.7 °F 91% 29.99 in 7.0 mi SSE 5.8 mph - N/A   Unknown
8:55 AM 33.3 °F 27.9 °F 29.8 °F 87% 30.00 in 10.0 mi SSE 5.8 mph - N/A   Unknown
9:15 AM 34.9 °F 29.0 °F 29.8 °F 82% 30.00 in 10.0 mi South 6.9 mph - N/A   Unknown
9:35 AM 36.3 °F 29.5 °F 30.0 °F 78% 29.99 in 10.0 mi SSE 9.2 mph - N/A   Unknown
9:55 AM 37.9 °F 30.9 °F 30.2 °F 74% 30.00 in 10.0 mi South 10.4 mph - N/A   Unknown
10:15 AM 39.2 °F 32.5 °F 30.6 °F 71% 29.99 in 10.0 mi SSE 10.4 mph - N/A   Unknown
10:35 AM 40.6 °F 35.4 °F 30.0 °F 66% 29.98 in 10.0 mi SSE 8.1 mph - N/A   Unknown
10:55 AM 41.4 °F 36.2 °F 30.4 °F 65% 29.97 in 10.0 mi South 8.1 mph 16.1 mph N/A   Unknown
11:15 AM 42.1 °F 34.9 °F 30.2 °F 63% 29.96 in 10.0 mi SSE 13.8 mph 19.6 mph N/A   Unknown
11:35 AM 42.1 °F 36.1 °F 30.0 °F 62% 29.93 in 10.0 mi South 10.4 mph 18.4 mph N/A   Unknown
11:55 AM 43.5 °F 37.5 °F 30.6 °F 60% 29.91 in 10.0 mi SSE 11.5 mph 18.4 mph N/A   Unknown
12:15 PM 44.4 °F 38.2 °F 30.2 °F 57% 29.90 in 10.0 mi SSE 12.7 mph 18.4 mph N/A   Unknown
12:35 PM 44.8 °F 38.7 °F 31.5 °F 60% 29.88 in 10.0 mi SSE 12.7 mph - N/A   Unknown
12:55 PM 45.3 °F 39.3 °F 31.6 °F 59% 29.88 in 10.0 mi SSE 12.7 mph 18.4 mph N/A   Unknown
1:15 PM 45.9 °F 40.0 °F 32.0 °F 58% 29.87 in 10.0 mi SSE 12.7 mph 18.4 mph N/A   Unknown
1:35 PM 46.6 °F - 32.4 °F 58% 29.86 in 10.0 mi SSE 12.7 mph - N/A   Unknown
1:55 PM 47.3 °F - 32.0 °F 55% 29.85 in 10.0 mi SSE 15.0 mph 23.0 mph N/A   Unknown
2:15 PM 46.9 °F - 32.9 °F 58% 29.84 in 10.0 mi SSE 15.0 mph 21.9 mph N/A   Unknown
2:35 PM 46.9 °F - 33.1 °F 59% 29.83 in 10.0 mi SSE 15.0 mph 20.7 mph N/A   Unknown
2:55 PM 47.3 °F - 32.9 °F 57% 29.83 in 10.0 mi SSE 17.3 mph 25.3 mph N/A   Unknown
3:15 PM 47.7 °F - 32.5 °F 56% 29.81 in 10.0 mi SSE 16.1 mph 25.3 mph N/A   Unknown
3:35 PM 47.7 °F - 32.2 °F 55% 29.82 in 10.0 mi SSE 15.0 mph 21.9 mph N/A   Unknown
3:55 PM 48.2 °F - 31.8 °F 53% 29.81 in 10.0 mi SSE 18.4 mph 29.9 mph N/A   Unknown
4:15 PM 47.8 °F - 31.5 °F 53% 29.81 in 10.0 mi SSE 16.1 mph 24.2 mph N/A   Unknown
4:35 PM 47.1 °F - 31.8 °F 55% 29.80 in 10.0 mi SSE 16.1 mph 24.2 mph N/A   Unknown
4:55 PM 46.4 °F 40.1 °F 32.0 °F 57% 29.79 in 10.0 mi SSE 15.0 mph 23.0 mph N/A   Unknown
5:15 PM 46.4 °F 39.2 °F 32.0 °F 57% 29.79 in 10.0 mi SSE 18.4 mph 25.3 mph N/A   Unknown
5:35 PM 45.7 °F 40.2 °F 31.3 °F 57% 29.79 in 10.0 mi SSE 11.5 mph 20.7 mph N/A   Unknown
5:55 PM 45.1 °F 39.1 °F 31.8 °F 60% 29.79 in 10.0 mi SSE 12.7 mph 21.9 mph N/A   Unknown
6:15 PM 45.1 °F 37.9 °F 31.6 °F 59% 29.78 in 10.0 mi SSE 17.3 mph 24.2 mph N/A   Unknown
6:35 PM 45.1 °F 37.9 °F 31.1 °F 58% 29.78 in 10.0 mi SSE 17.3 mph 26.5 mph N/A   Unknown
6:55 PM 45.5 °F 38.9 °F 30.9 °F 57% 29.77 in 10.0 mi SSE 15.0 mph 23.0 mph N/A   Unknown
7:15 PM 45.5 °F 38.6 °F 30.6 °F 56% 29.78 in 10.0 mi South 16.1 mph 20.7 mph N/A   Unknown
7:35 PM 45.9 °F 39.4 °F 30.2 °F 54% 29.77 in 10.0 mi SSE 15.0 mph 25.3 mph N/A   Unknown
7:55 PM 45.9 °F 39.4 °F 30.2 °F 54% 29.79 in 10.0 mi South 15.0 mph 23.0 mph N/A   Unknown
8:15 PM 46.0 °F 40.2 °F 30.2 °F 54% 29.79 in 10.0 mi South 12.7 mph 20.7 mph N/A   Unknown
8:35 PM 46.2 °F 40.8 °F 30.2 °F 54% 29.80 in 10.0 mi South 11.5 mph 21.9 mph N/A   Unknown
8:55 PM 45.7 °F 40.6 °F 30.2 °F 55% 29.80 in 10.0 mi South 10.4 mph 17.3 mph N/A   Unknown
9:15 PM 45.5 °F 39.9 °F 30.2 °F 55% 29.80 in 10.0 mi South 11.5 mph - N/A   Unknown
9:35 PM 45.1 °F 40.8 °F 30.2 °F 56% 29.80 in 10.0 mi South 8.1 mph 16.1 mph N/A   Unknown
9:55 PM 44.6 °F 39.7 °F 30.2 °F 57% 29.79 in 10.0 mi SSE 9.2 mph - N/A   Unknown
10:15 PM 44.1 °F 39.5 °F 30.2 °F 58% 29.78 in 10.0 mi SSE 8.1 mph - N/A   Unknown
10:35 PM 44.1 °F 39.0 °F 30.2 °F 58% 29.78 in 10.0 mi SSE 9.2 mph - N/A   Unknown
10:55 PM 44.6 °F 39.2 °F 30.2 °F 57% 29.77 in 10.0 mi SSE 10.4 mph - N/A   Unknown
11:15 PM 44.6 °F 39.2 °F 30.2 °F 57% 29.76 in 10.0 mi SSE 10.4 mph - N/A   Unknown
11:35 PM 44.8 °F 39.4 °F 30.0 °F 56% 29.76 in 10.0 mi South 10.4 mph - N/A   Unknown
11:55 PM 45.3 °F 40.1 °F 29.8 °F 55% 29.75 in 10.0 mi South 10.4 mph 17.3 mph N/A   Unknown